Location: La Cochardi�re
(47.7403°N, 1.2917°W)
Time: 18:50:46
(UTC+00:00)

Daily predictions for brighter satellites

Satellite Brightness Start Highest point End
(mag) Time Altitude Azimuth Time Altitude Azimuth Time Altitude Azimuth
BREEZE-M DEB (TANK) 3.4 20:00:45 10° WNW 20:03:38 63° SSW 20:11:29 10° ESE
Cosmos 2219 Rocket 3.6 20:00:01 10° N 20:04:33 24° NE 20:09:02 10° E
Meteor 2-15 4.5 19:58:40 10° N 20:04:46 83° E 20:10:50 10° S
SJ-6B 3.3 20:03:27 10° S 20:07:07 59° W 20:10:53 10° NNW
Resurs 1-3 3.6 20:03:13 10° SSE 20:07:36 77° ENE 20:12:00 10° N
Cosmos 2056 Rocket 3.9 20:04:37 10° NNW 20:09:49 50° ENE 20:14:54 10° SE
ATLAS 5 CENTAUR R/B 3.5 20:05:49 10° NNW 20:10:25 30° NE 20:15:43 10° E
USA 186 3.7 20:12:13 10° SSW 20:14:28 23° W 20:16:37 10° NW
SPOT 1/Viking Rocket 4.2 20:15:03 10° SE 20:19:54 41° ENE 20:24:46 10° N
Cosmos 1092 Rocket 4.0 20:15:19 10° S 20:21:34 74° E 20:27:55 10° NNE
NOSS 2-1 (E) 3.0 20:18:23 10° SSW 20:21:34 47° SE 20:24:50 10° NE
Cosmos 2026 Rocket 4.1 20:19:03 10° S 20:25:15 64° E 20:31:24 10° NNE
SL-16 R/B 2.7 20:20:50 10° NNW 20:26:26 60° WSW 20:32:00 10° S
IGS 5A 3.4 20:24:08 10° SSE 20:28:15 74° ENE 20:32:25 10° N
GP-B 3.6 20:24:48 10° NNE 20:29:02 42° E 20:33:15 10° SSE
Meteor 1-26 Rocket 4.4 20:24:42 10° NNW 20:30:37 85° W 20:36:18 10° S
Cosmos 1151 Rocket 3.1 20:27:04 10° N 20:31:25 63° ENE 20:35:46 10° SSE
Cosmos 1371 Rocket 4.1 20:26:46 10° NNW 20:32:11 82° ENE 20:37:32 10° SSE
Cosmos 1680 Rocket 3.5 20:27:01 10° SSW 20:32:17 84° ESE 20:37:34 10° NNE
NOSS 3-1 (C) 4.2 20:25:38 10° NW 20:32:55 69° NE 20:40:55 12° SE
Cosmos 2112 Rocket 4.0 20:28:51 10° SSW 20:34:07 76° ESE 20:39:23 10° NNE
Lacrosse 5 3.5 20:33:36 12° SE 20:34:08 12° ESE 20:36:06 10° E
Cosmos 1271 Rocket 3.4 20:31:30 10° NNW 20:35:27 57° W 20:39:22 10° S
Okean 3 Rocket 3.8 20:32:35 10° S 20:36:58 55° E 20:41:25 10° NNE
ERS-2 2.0 20:37:48 10° NNE 20:41:29 84° ESE 20:45:06 10° SSW
MetOp-B 4.2 20:36:45 10° SSE 20:42:03 69° ENE 20:47:24 10° N
Cosmos 2237 4.4 20:38:58 10° NNW 20:44:41 73° WSW 20:50:20 10° SSE
COSMOS 2487 3.9 20:45:40 17° ESE 20:46:37 19° E 20:49:06 10° NE
Cosmos 1515 Rocket 4.1 20:44:27 10° N 20:48:40 41° ENE 20:51:44 17° SE
COSMOS 2428 3.5 20:44:14 10° NNW 20:49:34 39° NE 20:53:52 15° ESE
GEOS 3 Rocket 3.7 20:45:22 10° NE 20:50:36 80° NW 20:55:43 10° SW
USA 229 DEB 4.2 20:43:57 10° NW 20:51:05 58° NE 20:57:36 15° ESE
USA 229 4.3 20:44:03 10° NW 20:51:12 58° NE 20:57:42 15° ESE
COSMOS 2455 3.2 20:46:51 10° S 20:52:27 42° ESE 20:58:04 10° NE
Cosmos 292 Rocket 3.8 20:51:30 10° NNW 20:56:18 76° ENE 20:59:58 17° SSE
Terra 3.0 20:54:30 16° ESE 20:57:27 28° ENE 21:01:29 10° N
Cosmos 1328 Rocket 3.5 20:53:19 10° N 20:57:47 89° E 21:01:43 13° S
Ariane Rocket 4.1 20:53:20 10° S 20:58:08 43° W 21:02:59 10° NNW
Cosmos 1809 Rocket 4.4 20:52:24 10° S 20:58:31 77° E 21:04:39 10° NNE
Cosmos 2360 Rocket 2.4 20:54:07 10° NNW 20:59:44 71° WSW 21:04:37 14° SSE
Cosmos 1766 Rocket 3.7 20:59:10 10° SSW 21:03:33 77° W 21:07:55 10° N
SPOT 3 Rocket 3.8 21:00:00 10° S 21:05:11 69° WSW 21:10:25 10° NNW
Cosmos 1174 3.5 21:02:21 10° NW 21:05:17 54° WSW 21:06:57 23° SSE
NOSS 2-1 (C) 3.8 21:02:33 10° WSW 21:05:44 50° NW 21:09:05 10° NNE
Resurs 01 Rocket 2.6 21:05:57 10° S 21:10:12 44° W 21:14:29 10° NNW
NOSS 3-1 (A) 4.2 21:04:25 10° NW 21:11:46 72° NE 21:18:16 19° SE
Meteor 2-6 Rocket 4.1 21:06:33 10° NNW 21:11:58 84° W 21:16:31 15° S
NOSS 2-1 (D) 4.2 21:10:27 10° WSW 21:13:34 42° NW 21:16:53 10° NNE
Cosmos 2266 Rocket 4.3 21:09:42 16° SSE 21:14:21 49° E 21:20:22 10° NNE
Cosmos 1420 Rocket 4.2 21:09:52 10° NNW 21:15:12 74° WSW 21:19:08 18° SSE
Cosmos 1812 3.1 21:12:18 10° NNW 21:16:08 61° W 21:19:06 16° S
Cosmos 1553 Rocket 4.0 21:10:58 10° N 21:17:05 80° W 21:22:39 13° S
Cosmos 1862 3.3 21:16:10 10° SSW 21:20:04 81° W 21:24:04 10° N
Gblst 52 Del rocket 4.4 21:14:16 10° WNW 21:20:12 84° SSW 21:24:54 21° ESE
Meteor 2-21 Rocket 4.4 21:16:41 10° S 21:22:51 76° E 21:29:00 10° NNE
SL-27 R/B 3.7 21:19:25 10° SW 21:22:52 44° WNW 21:26:21 10° N
ERS-1 Rocket 3.0 21:20:14 23° SSE 21:23:16 65° ENE 21:28:15 10° N
Cosmos 2228 Rocket 3.7 21:20:52 10° N 21:25:04 40° ENE 21:26:53 27° SE
Cosmos 2285 Rocket 4.1 21:22:58 10° NNW 21:29:16 68° ENE 21:33:03 25° SE
Cosmos 1833 4.5 21:25:01 10° SW 21:30:46 72° WNW 21:36:34 10° NNE
Cosmos 2297 Rocket 3.8 21:31:26 16° E 21:31:29 16° E 21:34:53 10° ENE
Cosmos 1805 Rocket 4.3 21:31:35 29° SE 21:32:47 35° E 21:36:49 10° NNE
BREEZE-M DEB (TANK) 2.4 21:26:31 10° WNW 21:33:19 87° NNE 21:34:36 33° ESE
Cosmos 2315 Rocket 4.3 21:27:51 10° N 21:34:05 55° ENE 21:37:37 26° SE
SPOT 5 2.6 21:31:58 29° SSE 21:34:10 79° ENE 21:38:43 10° NNW
NOSS 0 Rocket 4.4 21:28:12 10° NNW 21:34:17 51° NE 21:37:53 24° ESE
ARIANE 5 R/B 2.6 21:31:52 26° SSE 21:34:20 86° WSW 21:38:46 10° NNW
Cosmos 2333 Rocket 2.3 21:29:33 10° NNW 21:35:13 76° WSW 21:38:33 25° SSE
Cosmos 2322 Rocket 4.1 21:32:10 10° NW 21:36:28 23° WSW 21:40:44 10° SSW
Cosmos 2237 Rocket 3.2 21:32:11 10° NNW 21:37:23 35° NE 21:40:34 20° ESE
Cosmos 2322 3.8 21:32:27 10° NNW 21:38:12 76° WSW 21:41:30 26° SSE
USA 234 4.5 21:35:24 10° ENE 21:41:24 40° N 21:47:25 10° WNW
Cosmos 1452 Rocket 3.5 21:36:28 10° NNW 21:41:46 84° WSW 21:44:29 29° SSE
Cosmos 1500 Rocket 3.5 21:40:12 27° S 21:42:34 77° E 21:47:03 10° NNE
Cosmos 2227 Rocket 3.9 21:44:49 15° E 21:44:49 15° E 21:47:43 10° ENE
Cosmos 2219 Rocket 2.3 21:43:28 10° NNW 21:49:03 72° WSW 21:51:54 30° S
USA 102 4.5 21:50:35 33° NE 21:51:19 35° NNE 21:58:07 10° NNW
USA 102 4.5 21:50:35 33° NE 21:51:20 35° NNE 22:39:04 10° NNW
S3M 4.3 21:45:18 10° NNW 21:51:39 67° W 21:56:13 20° S
Sich 1 3.4 21:53:27 40° ESE 21:54:13 44° E 21:58:19 10° NNE
ATLAS 5 CENTAUR R/B 2.3 21:50:01 10° NW 21:55:34 80° SW 21:58:39 32° SSE
Cosmos 1515 4.2 21:53:26 10° N 21:57:03 42° ENE 21:57:27 40° E
Spot 2 Rocket 4.3 21:54:15 20° SSW 21:57:30 47° W 22:02:27 10° NNW
Cosmos 1331 Rocket 4.1 21:52:24 10° NNW 21:57:38 66° ENE 21:59:36 37° SE
Meteor 1-27 Rocket 3.8 21:52:33 10° NNW 21:58:15 76° W 22:01:24 28° S
Cosmos 1110 Rocket 4.0 21:53:44 10° NNW 21:59:05 75° ENE 22:01:08 38° SE
Cosmos 1743 Rocket 3.9 22:02:46 25° SSW 22:05:15 65° WNW 22:09:39 10° N
SL-16 R/B 3.8 22:05:01 10° N 22:09:41 25° NE 22:12:56 16° E
Cosmos 1655 Rocket 4.4 22:04:01 13° SSW 22:09:46 63° WNW 22:16:09 10° N
Cosmos 1633 Rocket 3.9 22:10:51 32° E 22:10:52 32° E 22:14:45 10° NNE
Cosmos 494 Rocket 3.8 22:11:18 31° SSW 22:13:50 84° ESE 22:19:00 10° NNE
Lacrosse 5 1.8 22:12:21 17° SSW 22:16:13 62° SE 22:21:14 10° ENE
IRIDIUM 104 4.3 22:12:12 10° N 22:17:27 84° W 22:19:24 40° S
COSMOS 2487 4.2 22:18:51 14° WSW 22:21:14 29° WNW 22:24:16 10° N
APEX 4.3 22:17:43 26° SSW 22:21:18 79° ESE 22:28:08 10° NNE
Cosmos 1666 Rocket 3.8 22:21:09 49° ESE 22:21:28 50° E 22:25:48 10° NNE
Cosmos 1602 3.6 22:22:55 72° ESE 22:22:57 72° E 22:26:48 10° NNE
IRIDIUM 114 4.5 22:21:21 10° N 22:26:34 71° W 22:28:31 38° SSW
Cosmos 1244 Rocket 4.4 22:30:49 42° SSE 22:33:00 72° E 22:39:14 10° NNE
COSMOS 2428 3.5 22:28:35 10° NW 22:33:52 40° WSW 22:35:52 30° SSW
CZ-4C R/B 3.8 22:28:18 10° NW 22:34:48 42° NE 22:41:11 15° ESE
Terra 2.8 22:33:23 30° SW 22:35:03 40° W 22:39:32 10° NNW
Meteor 1-25 Rocket 4.1 22:33:39 39° SSW 22:35:49 85° W 22:41:25 10° N
COBE Rocket 3.8 22:36:50 56° ESE 22:37:35 65° ENE 22:42:19 10° N
COSMOS 2455 4.0 22:32:41 10° WSW 22:38:24 43° NW 22:44:09 10° NNE
Cosmos 2084 Rocket 3.8 22:34:45 10° NW 22:38:50 49° SW 22:38:56 49° SW
Meteor 2-4 Rocket 4.1 22:33:22 10° N 22:39:11 56° ENE 22:40:46 43° ESE
CZ-3B R/B 2.0 22:30:25 10° WNW 22:39:16 82° SW 22:39:48 66° SE
Cosmos 1862 Rocket 3.5 22:40:49 10° N 22:45:09 68° E 22:45:19 67° E
Meteor 1-18 Rocket 4.2 22:41:58 10° NNW 22:47:48 90° NNE 22:49:19 52° S
USA 267 3.9 22:42:58 10° ENE 22:48:10 33° ESE 22:48:10 33° ESE
Cosmos 2219 3.3 22:48:17 50° SE 22:48:58 53° ESE 22:54:34 10° NE
H-2A R/B 4.1 22:48:24 10° N 22:52:30 52° WNW 22:53:30 41° WSW
Spot 4 3.8 22:52:09 60° ESE 22:52:49 69° ENE 22:57:39 10° N
Okean 1 3.5 22:49:00 10° NNW 22:52:57 61° W 22:52:58 61° W
Cosmos 1707 Rocket 3.9 22:49:02 10° NNW 22:53:20 56° W 22:53:48 53° WSW
Cosmos 1302 Rocket 3.9 22:51:25 10° NNW 22:56:40 79° WSW 22:57:32 62° S
TSX-5 4.3 22:57:39 53° WSW 22:58:28 67° NW 23:03:33 10° NNE
Cosmos 1500 3.4 22:59:15 71° NNW 22:59:15 71° NNW 23:02:48 10° N
Meteor 1-19 Rocket 4.4 22:54:06 10° NNW 22:59:34 62° W 23:00:52 47° SSW
Cosmos 1980 3.8 22:54:42 10° NNW 23:00:18 62° WSW 23:01:24 51° SSW
Cosmos 1703 Rocket 4.5 22:57:12 10° N 23:01:17 36° ENE 23:01:20 36° ENE
SL-08 R/B 4.4 23:00:49 49° S 23:02:37 86° E 23:08:47 10° N
STPSAT 2 (USA 217) 4.4 22:58:18 10° NNW 23:02:54 86° ENE 23:03:04 83° SE
Cosmos 909 Rocket 4.4 23:02:47 47° SSE 23:04:13 55° ESE 23:11:44 10° NE
Cosmos 1378 4.4 23:01:10 10° N 23:03:58 32° NE 23:03:58 32° NE
NOSS 2-2 (D) 4.5 23:02:53 10° NW 23:08:13 67° SW 23:09:49 50° S
Okean 1-7 3.7 23:05:38 10° N 23:09:33 42° ENE 23:09:33 42° ENE
Cosmos 1269 Rocket 3.9 23:10:35 60° SSW 23:11:35 86° WNW 23:16:55 10° NNE
Cosmos 2297 Rocket 2.1 23:13:12 50° SSW 23:14:46 85° WNW 23:20:28 10° NNE
Meteor 2-17 Rocket 4.4 23:15:37 54° SE 23:16:44 65° E 23:22:44 10° NNE
Cosmos 2333 Rocket 4.5 23:16:28 10° WNW 23:18:29 12° W 23:20:29 10° WSW
Cosmos 2237 Rocket 2.7 23:16:11 10° NW 23:21:36 46° WSW 23:22:23 43° SW
ALOS 2 2.6 23:23:09 77° NE 23:23:09 77° NE 23:27:28 10° N
USA 234 3.7 23:18:03 13° E 23:23:47 60° NNE 23:30:13 10° NW
Cosmos 1461 4.3 23:27:18 30° ENE 23:27:18 30° ENE 23:29:55 10° NE
Cosmos 1709 Rocket 4.2 23:26:19 50° SE 23:27:32 58° E 23:33:48 10° NNE
Cosmos 2227 Rocket 2.1 23:26:36 59° SSW 23:27:45 88° WNW 23:33:27 10° NNE
Meteor 1-13 Rocket 4.3 23:22:12 10° N 23:27:54 65° ENE 23:28:50 56° ESE
Cosmos 2219 Rocket 4.5 23:30:33 10° W 23:31:57 11° W 23:33:20 10° WSW
Cosmos 2263 Rocket 3.7 23:33:28 22° E 23:33:28 22° E 23:37:21 10° NE
Meteor 1-14 Rocket 4.5 23:34:11 47° SW 23:35:35 61° WNW 23:41:15 10° N
Cosmos 1745 Rocket 4.0 23:35:14 52° SSW 23:36:53 77° W 23:43:15 10° N
ATLAS 5 CENTAUR R/B 4.2 23:35:58 10° WNW 23:39:45 18° WSW 23:40:09 17° WSW
Cosmos 1536 3.8 23:40:44 41° NE 23:40:44 41° NE 23:43:47 10° NNE
Cosmos 1241 Rocket 4.4 23:44:34 58° S 23:45:52 74° ESE 23:52:21 10° NE
Okean 3 3.9 23:41:58 10° N 23:45:46 56° NE 23:45:46 56° NE
Cosmos 1869 Rocket 4.1 23:47:06 50° ENE 23:47:06 50° ENE 23:50:58 10° NNE
Nadezhda 1 Rocket 4.4 23:43:35 10° NNW 23:49:47 54° W 23:51:16 45° SW
Cosmos 1666 3.9 23:50:39 37° WNW 23:50:39 37° WNW 23:53:52 10° N
Cosmos 44 3.4 23:45:40 10° NW 23:50:57 75° NE 23:51:25 69° E
Cosmos 1470 Rocket 4.4 23:51:16 40° W 23:51:23 40° WNW 23:55:30 10° N
Thor Agena Rocket 4.0 23:47:49 10° NNE 23:52:34 44° E 23:52:34 44° E
SL-16 R/B 2.1 23:48:41 10° NNW 23:54:20 69° WSW 23:54:47 66° SW
